#timestamp,LO_Frequency,Hit,StdDev 
1601056815.4,286047000.6,N
1601056835.2,286047000.3,N
1601056855.0,286047000.1,N
1601056855.9,286047000.1,N
1601056875.8,286047000.1,N
1601056895.6,286046999.8,N
1601056915.4,286047000.1,N
1601056935.3,286047000.2,N
1601056985.1,286046999.7,E
1601056995.1,286047002.3,N
1601056996.0,286047002.3,P
1601057015.8,286047002.6,P
1601057035.6,286047002.5,Y
1601057055.5,286046998.2,P
1601057075.3,286047001.2,N
1601057095.1,286047000.7,N
1601057115.9,286046998.9,N
1601057135.7,286046999.3,N
1601057155.5,286046998.9,N
1601057175.4,286046996.5,N
1601057195.2,286046996.5,N
1601057215.0,286046998.7,N
1601057215.9,286046998.7,N
1601057235.8,286046999.0,N
1601057255.6,286046999.3,N
1601057275.4,286046998.1,N
1601057295.3,286046998.3,N
1601057315.1,286046998.4,N
1601057335.8,286046999.6,N
1601057355.7,286046999.4,N
1601057375.5,286046999.3,N
1601057395.3,286046999.3,N
1601057415.2,286046999.1,N
1601057435.0,286046997.3,N
1601057435.9,286046997.3,N
1601057455.7,286046996.5,N
1601057475.6,286046999.1,N
1601057495.4,286046996.6,N
1601057515.2,286046999.3,N
1601057535.1,286046999.1,N
1601057536.0,286046999.1,N
1601057555.8,286046997.0,N
1601057575.6,286046997.3,N
1601057595.5,286046996.9,N
1601057615.3,286046997.1,N
1601057635.2,286046997.5,N
1601057655.9,286046997.4,N
1601057675.7,286046997.0,N
1601057695.6,286046996.8,Y
1601057715.4,286047000.9,P
1601057735.2,286047000.8,N
1601057755.1,286047000.8,N
1601057756.0,286047000.8,N
1601057775.8,286046998.3,N
1601057795.6,286047001.1,N
1601057815.5,286046998.6,N
1601057835.3,286046998.4,N
1601057855.1,286046998.7,N
1601057875.9,286046998.6,N
1601057895.7,286046999.2,N
1601057915.5,286046999.4,N
1601057935.4,286046998.8,N
1601057955.2,286047001.1,N
1601057975.0,286046998.7,N
1601057975.9,286046998.7,N
1601057995.8,286046998.5,N
1601058015.6,286046998.8,N
1601058035.4,286047000.8,N
1601058055.3,286047000.7,N
1601058075.1,286047000.9,N
1601058095.8,286047001.1,N
1601058115.7,286047000.7,N
1601058135.5,286047001.2,N
1601058155.3,286046998.5,N
1601058175.2,286046998.3,N
1601058195.0,286046999.4,N
1601058195.9,286046999.4,N
1601058215.7,286046999.3,N
1601058235.6,286046998.4,N
1601058255.4,286046998.9,N
1601058275.2,286046998.4,N
1601058295.1,286046998.7,N
1601058296.0,286046998.7,N
1601058315.8,286046998.3,N
1601058335.6,286046999.0,N
1601058355.5,286047001.1,N
1601058375.3,286046998.1,N
1601058395.1,286046999.9,N
1601058415.9,286047000.3,N
1601058435.7,286047000.4,N
1601058455.5,286046999.8,N
1601058475.4,286047000.2,N
1601058495.2,286046999.8,N
1601058515.0,286046999.7,N
1601058515.9,286046999.7,N
1601058535.8,286047002.8,N
1601058555.6,286047000.1,N
1601058575.4,286046999.9,N
1601058595.3,286046999.9,N
1601058615.1,286047001.9,N
1601058635.8,286047002.8,N
1601058655.7,286047000.5,N
1601058675.5,286046999.7,N
1601058695.3,286047002.0,N
1601058715.2,286047002.2,N
1601058735.0,286047002.2,N
1601058735.9,286047002.2,N
1601058755.8,286047002.0,N
1601058775.6,286047001.5,N
1601058795.4,286047001.4,N
1601058815.3,286047001.4,N
1601058835.1,286047002.0,N
1601058836.0,286047002.0,N
1601058855.8,286047001.8,N
1601058875.7,286047001.5,N
1601058895.5,286047004.4,Y
1601058915.3,286047001.7,P
1601058935.2,286047004.0,P
1601058955.9,286047001.4,N
1601058975.7,286047004.4,Y
1601058995.6,286047002.2,P
1601059015.4,286047002.3,P
1601059035.2,286047002.3,P
1601059055.1,286047002.1,Y
1601059056.0,286047002.1,P
1601059075.8,286047000.9,P
1601059095.6,286047000.2,N
1601059115.5,286047000.0,N
1601059135.3,286047000.1,N
1601059155.1,286046999.7,N
1601059175.9,286047001.0,N
1601059195.7,286047002.4,N
1601059215.5,286046999.7,N
1601059235.4,286047000.3,N
1601059255.2,286047004.3,Y
1601059275.0,286047000.3,P
1601059276.0,286047000.3,N
1601059295.8,286047002.6,P
1601059315.6,286047002.8,N
1601059335.5,286047002.6,N
1601059355.3,286047002.7,N
1601059375.1,286047002.2,N
1601059395.9,286046999.9,N
1601059415.7,286047002.7,N
1601059435.5,286046999.8,N
1601059455.4,286047002.2,N
1601059475.2,286047002.5,N
1601059495.0,286047002.0,N
1601059495.9,286047002.0,N
1601059515.8,286047001.3,N
1601059535.6,286047001.9,N
1601059555.4,286047002.1,N
1601059575.3,286047001.3,N
1601059595.1,286047001.7,N
1601059596.0,286047001.7,N
1601059615.8,286047001.3,N
1601059635.7,286047002.4,N
1601059655.5,286047001.9,N
1601059675.3,286047001.4,N
1601059695.2,286047004.0,Y
1601059715.9,286047000.4,P
1601059735.7,286047002.8,P
1601059755.6,286047002.2,N
1601059775.4,286047002.7,Y
1601059795.2,286047001.0,P
1601059815.1,286047000.7,N
1601059816.0,286047000.7,N
1601059835.8,286047000.4,N
1601059855.6,286047000.6,N
1601059875.5,286047000.9,N
1601059895.3,286047001.0,N
1601059915.1,286047000.0,N
1601059935.9,286047000.5,N
1601059955.7,286046999.8,N
1601059975.5,286046999.9,N
1601059995.4,286046999.8,N
1601060015.2,286047000.1,N
1601060035.0,286047000.7,N
1601060036.0,286047000.7,N
1601060055.8,286047000.0,N
1601060075.6,286047000.3,N
1601060095.5,286047002.3,Y
1601060115.3,286047000.8,P
1601060135.1,286047001.1,P
1601060155.9,286047002.6,P
1601060175.7,286047000.2,N
1601060195.5,286046999.8,N
1601060215.4,286047002.5,N
1601060235.2,286047002.6,N
1601060255.0,286047002.7,N
1601060255.9,286047002.7,N
1601060275.8,286047001.6,N
1601060295.6,286047002.7,N
1601060315.4,286047002.5,N
1601060335.3,286047001.3,N
1601060355.1,286047002.0,N
1601060356.0,286047002.0,N
1601060375.8,286047004.0,Y
1601060395.7,286046999.7,P
